[[{"header":{"parameterUnit":"m.s-1","parameterCategory":1,"la1":30.2991,"la2":30.254,"lo1":-89.0895,"lo2":-89.0444,"dy":0.0017,"dx":0.0017,"nx":28,"ny":28,"refTime":"2024-08-24T21:00:00:Z","depth":0,"parameterNumber":2,"parameterNumberName":"U-component_of_WINDS"},"data":[0,0,0,0,0,0,0,0,0,0,0,0,0,0,0,0,0,0,0,0,0,0,0,0,0,0,0,0,0,0,0,0,0,0,0,0,0,0,0,0,0,0,0,0,0,0,0,0,0,0,0,0,0,0,0,0,0,0,-4.4484,-4.4485,0,-4.4544,-4.4544,-4.4545,-4.4491,-4.4489,-4.4487,-4.4485,-4.4546,-4.4549,-4.4553,0,0,0,0,0,0,0,0,0,0,0,0,0,-4.4324,-4.4327,-4.4484,-4.4485,-4.4485,-4.4544,-4.4544,-4.4545,-4.4492,-4.4489,-4.4486,-4.4484,-4.4545,-4.4549,-4.4553,0,0,0,0,0,0,0,0,0,0,0,0,0,-4.4389,-4.4328,-4.4484,-4.4466,-4.4465,-4.4543,-4.4544,-4.4545,-4.4492,-4.4489,-4.4486,-4.4483,-4.4543,-4.4548,-4.4554,-4.4653,0,0,-4.4571,-4.4573,0,0,0,0,0,0,0,0,-4.4386,-4.4395,-4.4468,-4.4467,-4.4466,-4.4507,-4.451,-4.4582,-4.4493,-4.4482,-4.4485,-4.4481,-4.4535,-4.4541,-4.456,-4.4656,-4.4659,-4.4571,-4.4574,-4.4577,-4.4578,0,0,0,0,0,0,0,-4.4381,-4.4392,-4.4508,-4.4469,-4.4468,-4.4455,-4.446,-4.4523,-4.4526,-4.4483,-4.4479,-4.4487,-4.4534,-4.4555,-4.4561,-4.466,-4.4571,-4.4576,-4.4579,-4.4581,-4.4842,-4.4846,0,0,0,0,0,0,-4.4378,-4.4389,-4.4506,-4.4509,-4.4417,-4.446,-4.4467,-4.4497,-4.4525,-4.4527,-4.4489,-4.4484,-4.4547,-4.4554,-4.4563,-4.4682,-4.4577,-4.4582,-4.4585,-4.4838,-4.4843,-4.4847,0,0,0,0,0,0,-4.4375,-4.4389,-4.4503,-4.4448,-4.4462,-4.4467,-4.4501,-4.45,-4.452,-4.4531,-4.4531,-4.451,-4.4545,-4.4555,-4.4632,-4.4683,-4.4584,-4.4589,-4.4834,-4.484,-4.4845,-4.4921,0,0,0,0,0,0,-4.4371,-4.4389,-4.4426,-4.4449,-4.4465,-4.4571,-4.4504,-4.4503,-4.453,-4.4523,-4.455,-4.4551,-4.4543,-4.4624,-4.4637,-4.4689,-4.4594,-4.483,-4.4837,-4.4843,-4.4914,-4.4928,-4.4941,0,0,0,0,0,-4.4365,-4.4445,-4.4429,-4.4443,-4.4512,-4.4574,-4.4583,-4.4572,-4.4534,-4.4572,-4.4579,-4.455,-4.4675,-4.4632,-4.4646,-4.4701,-4.4826,-4.4835,-4.4843,-4.4908,-4.4925,-4.494,0,0,0,0,0,0,-4.4427,-4.4448,-4.443,-4.4519,-4.4546,-4.4565,-4.4613,-4.4591,-4.4629,-4.4621,-4.4606,-4.4612,-4.4694,-4.4705,-4.4656,-4.4799,-4.4745,-4.4756,-4.4789,-4.4806,-4.4819,-4.4815,-4.4598,0,0,0,0,0,-4.4452,-4.45,-4.4515,-4.4593,-4.4607,-4.4608,-4.4635,-4.4624,-4.4651,-4.4662,-4.4674,-4.4701,-4.4746,-4.4777,-4.4819,-4.4915,-4.4921,-4.496,-4.4973,-4.4984,-4.4995,-4.5047,-4.5065,-4.4874,-4.4874,-4.4873,0,0,-4.4502,-4.4519,-4.4551,-4.4606,-4.4625,-4.4676,-4.4618,-4.4674,-4.4712,-4.467,-4.4743,-4.4754,-4.4783,-4.487,-4.4909,-4.4882,-4.5049,-4.4995,-4.5003,-4.5008,-4.5058,-4.5076,-4.5092,-4.4879,-4.4878,-4.4877,0,0,-4.462,-4.4637,-4.4705,-4.4725,-4.4755,-4.4755,-4.4772,-4.4795,-4.48,-4.4874,-4.4844,-4.4889,-4.4967,-4.499,-4.5011,-4.5139,-4.5114,-4.5153,-4.5224,-4.5275,-4.529,-4.5304,-4.535,-4.5367,-4.5163,-4.5164,-4.5164,0,-4.4679,-4.4755,-4.4742,-4.4801,-4.4826,-4.4791,-4.4859,-4.488,-4.4922,-4.4941,-4.491,-4.5009,-4.5026,-4.5118,-4.5149,-4.5168,-4.5186,-4.515,-4.5289,-4.5303,-4.5315,-4.5359,-4.5377,-4.5168,-4.5168,-4.5167,-4.5167,0,-4.4826,-4.4879,-4.493,-4.4972,-4.5003,-4.5067,-4.5064,-4.5097,-4.5084,-4.5088,-4.5163,-4.5183,-4.5229,-4.525,-4.5237,-4.5341,-4.5324,-4.5291,-4.5236,-4.5338,-4.5379,-4.5396,-4.5175,-4.5173,-4.5172,-4.5171,0,0,-4.4984,-4.502,-4.5039,-4.5058,-4.5089,-4.513,-4.5192,-4.5238,-4.5267,-4.5297,-4.535,-4.5417,-4.5388,-4.5413,-4.5403,-4.5448,-4.5549,-4.541,-4.5411,-4.5436,-4.5666,-4.5691,-4.5711,-4.5533,-4.5536,-4.5538,-4.5664,0,-4.5104,-4.5213,-4.5203,-4.5306,-4.5355,-4.5323,-4.5377,-4.5402,-4.5408,-4.5451,-4.5456,-4.5505,-4.5462,-4.5477,-4.552,-4.5528,-4.5596,-4.5519,-4.5582,-4.5584,-4.5576,-4.5732,-4.5758,-4.5876,-4.568,-4.5683,-4.5685,0,-4.5259,-4.5296,-4.5403,-4.5428,-4.5448,-4.5497,-4.5539,-4.558,-4.5608,-4.5609,-4.5637,-4.562,-4.5683,-4.5626,-4.5713,-4.5661,-4.5686,-4.5694,-4.5699,-4.5705,-4.5641,-4.5743,-4.5913,-4.5931,-4.571,-4.5708,-4.5706,0,-4.5365,-4.5441,-4.5516,-4.5533,-4.5564,-4.5599,-4.5613,-4.5638,-4.5667,-4.5703,-4.5721,-4.5765,-4.5788,-4.5823,-4.5817,-4.5776,-4.5907,-4.5849,-4.591,-4.591,-4.5939,-4.5937,-4.6116,-4.5954,-4.5954,-4.5953,-4.5953,0,-4.55,-4.5568,-4.5564,-4.561,-4.5685,-4.5674,-4.5748,-4.5758,-4.5781,-4.5829,-4.5803,-4.5848,-4.5838,-4.5884,-4.588,-4.5953,-4.5964,-4.5967,-4.5965,-4.597,-4.597,-4.5987,-4.5979,-4.5958,-4.5957,-4.5956,-4.5955,0,-4.5632,-4.5632,-4.5712,-4.5734,-4.5741,-4.5796,-4.5815,-4.5859,-4.5862,-4.5923,-4.5936,-4.5942,-4.5994,-4.5992,-4.6051,-4.6048,-4.6139,-4.6127,-4.613,-4.6128,-4.6189,-4.6183,-4.6385,-4.6411,-4.6232,-4.6234,-4.6235,0,-4.5719,-4.577,-4.5798,-4.5829,-4.5845,-4.5894,-4.5923,-4.5914,-4.5946,-4.5982,-4.6022,-4.6072,-4.6111,-4.6196,-4.6205,-4.6251,-4.624,-4.6308,-4.6247,-4.625,-4.6243,-4.624,-4.6246,-4.632,-4.6322,-4.6324,-4.6325,0,-4.5873,-4.5871,-4.5914,-4.5958,-4.5994,-4.6027,-4.6058,-4.6085,-4.6079,-4.6116,-4.6169,-4.62,-4.626,-4.631,-4.6354,-4.6369,-4.6347,-4.6344,-4.6361,-4.6366,-4.6366,-4.6368,-4.6163,-4.634,-4.6338,-4.6337,-4.6337,-4.6336,-4.5986,-4.603,-4.6057,-4.6107,-4.6129,-4.6159,-4.6202,-4.6211,-4.6255,-4.6304,-4.6296,-4.6356,-4.6383,-4.644,-4.6458,-4.6505,-4.6481,-4.6505,-4.6511,-4.6518,-4.6525,-4.6358,-4.6513,-4.6513,-4.6512,-4.6512,-4.6512,0,-4.614,-4.6156,-4.6201,-4.6246,-4.6285,-4.626,-4.6294,-4.6328,-4.6381,-4.6409,-4.6448,-4.651,-4.6559,-4.6573,-4.662,-4.6655,-4.6646,-4.6668,-4.6665,-4.6669,-4.6543,-4.6525,-4.6674,-4.6674,-4.6674,-4.6674,-4.6674,-4.6674,-4.6224,-4.6299,-4.63,-4.6386,-4.6401,-4.646,-4.6481,-4.6509,-4.6531,-4.6601,-4.6642,-4.665,-4.6673,-4.6722,-4.6765,-4.6768,-4.6787,-4.6813,-4.6812,-4.6694,-4.6678,-4.6662,-4.6645,-4.6817,-4.6817,-4.6934,-4.6935,-4.6936]},{"header":{"parameterUnit":"m.s-1","parameterCategory":1,"la1":30.2991,"la2":30.254,"lo1":-89.0895,"lo2":-89.0444,"dy":0.0017,"dx":0.0017,"nx":28,"ny":28,"refTime":"2024-08-24T21:00:00:Z","depth":0,"parameterNumber":3,"parameterNumberName":"V-component_of_WINDS"},"data":[0,0,0,0,0,0,0,0,0,0,0,0,0,0,0,0,0,0,0,0,0,0,0,0,0,0,0,0,0,0,0,0,0,0,0,0,0,0,0,0,0,0,0,0,0,0,0,0,0,0,0,0,0,0,0,0,0,0,-1.0525,-1.0525,0,-1.0491,-1.049,-1.049,-1.0429,-1.0428,-1.0427,-1.0426,-1.0392,-1.0392,-1.0392,0,0,0,0,0,0,0,0,0,0,0,0,0,-1.0539,-1.0539,-1.0525,-1.0525,-1.0524,-1.0491,-1.049,-1.049,-1.0429,-1.0428,-1.0426,-1.0425,-1.0391,-1.0392,-1.0392,0,0,0,0,0,0,0,0,0,0,0,0,0,-1.0522,-1.0539,-1.0525,-1.049,-1.0486,-1.0491,-1.049,-1.049,-1.0429,-1.0428,-1.0426,-1.0424,-1.0391,-1.0392,-1.0392,-1.0428,0,0,-1.0393,-1.0393,0,0,0,0,0,0,0,0,-1.0523,-1.0521,-1.0496,-1.0492,-1.0489,-1.0462,-1.0483,-1.0469,-1.043,-1.0451,-1.0426,-1.0423,-1.0417,-1.0415,-1.0412,-1.0427,-1.0425,-1.0393,-1.0393,-1.0393,-1.0393,0,0,0,0,0,0,0,-1.0524,-1.0522,-1.0512,-1.0495,-1.0491,-1.0476,-1.0472,-1.048,-1.0444,-1.0449,-1.0445,-1.0441,-1.0414,-1.0412,-1.0411,-1.0425,-1.0393,-1.0393,-1.0393,-1.0393,-1.0466,-1.0468,0,0,0,0,0,0,-1.053,-1.0524,-1.0513,-1.0511,-1.0502,-1.0477,-1.0472,-1.0473,-1.0444,-1.0438,-1.0443,-1.0439,-1.0412,-1.0411,-1.0409,-1.0449,-1.0393,-1.0393,-1.0393,-1.0465,-1.0467,-1.0469,0,0,0,0,0,0,-1.0531,-1.053,-1.0514,-1.0516,-1.0513,-1.0479,-1.048,-1.0473,-1.047,-1.0439,-1.0432,-1.0447,-1.0411,-1.0409,-1.0424,-1.0447,-1.0393,-1.0394,-1.0463,-1.0465,-1.0468,-1.053,0,0,0,0,0,0,-1.0531,-1.053,-1.0544,-1.0517,-1.0513,-1.0529,-1.0481,-1.0473,-1.0471,-1.0465,-1.0441,-1.0436,-1.0409,-1.0424,-1.0424,-1.0447,-1.0394,-1.046,-1.0464,-1.0467,-1.0526,-1.0534,-1.0542,0,0,0,0,0,-1.0532,-1.0563,-1.0545,-1.0544,-1.0529,-1.0531,-1.0528,-1.0497,-1.0473,-1.0486,-1.0466,-1.0436,-1.0445,-1.0426,-1.0426,-1.0449,-1.0459,-1.0463,-1.0467,-1.0522,-1.0533,-1.0542,0,0,0,0,0,0,-1.0595,-1.0559,-1.0538,-1.0562,-1.055,-1.052,-1.0536,-1.051,-1.0505,-1.05,-1.0462,-1.0457,-1.0476,-1.0464,-1.0443,-1.0482,-1.0447,-1.0451,-1.0489,-1.0499,-1.0507,-1.0509,-1.0394,0,0,0,0,0,-1.0611,-1.0615,-1.0584,-1.0608,-1.0602,-1.0571,-1.057,-1.0547,-1.0533,-1.0528,-1.0509,-1.0497,-1.0496,-1.0497,-1.0495,-1.0524,-1.0517,-1.0539,-1.0547,-1.0554,-1.0558,-1.0571,-1.058,-1.0482,-1.0482,-1.0482,0,0,-1.0645,-1.0626,-1.0631,-1.062,-1.0607,-1.0612,-1.0567,-1.0574,-1.0577,-1.0529,-1.0541,-1.0527,-1.0511,-1.0532,-1.0541,-1.0523,-1.0584,-1.0559,-1.0565,-1.0565,-1.0576,-1.0586,-1.0594,-1.0485,-1.0484,-1.0484,0,0,-1.071,-1.0696,-1.0714,-1.0702,-1.0684,-1.0663,-1.0667,-1.0642,-1.063,-1.0642,-1.0605,-1.0609,-1.0609,-1.0599,-1.0594,-1.0654,-1.0626,-1.0654,-1.0697,-1.071,-1.0717,-1.0724,-1.0744,-1.0752,-1.0658,-1.0659,-1.0659,0,-1.0755,-1.076,-1.0726,-1.0736,-1.0731,-1.0687,-1.0704,-1.0695,-1.0678,-1.0676,-1.0656,-1.0655,-1.0641,-1.0659,-1.0673,-1.0671,-1.0674,-1.0657,-1.0719,-1.0725,-1.0731,-1.075,-1.0758,-1.0662,-1.0662,-1.0661,-1.0661,0,-1.0816,-1.082,-1.0837,-1.082,-1.0818,-1.0831,-1.0799,-1.0801,-1.0778,-1.0758,-1.077,-1.0752,-1.0745,-1.0748,-1.0726,-1.0762,-1.0751,-1.0726,-1.069,-1.0744,-1.0762,-1.0769,-1.0667,-1.0666,-1.0665,-1.0664,0,0,-1.0919,-1.0883,-1.0889,-1.0881,-1.0857,-1.086,-1.0871,-1.0864,-1.0866,-1.0855,-1.0863,-1.0864,-1.084,-1.0834,-1.0811,-1.0823,-1.087,-1.0795,-1.0794,-1.0809,-1.0908,-1.0927,-1.0936,-1.0852,-1.0853,-1.0854,-1.0909,0,-1.0978,-1.0994,-1.0964,-1.0987,-1.0991,-1.0949,-1.0958,-1.0945,-1.0927,-1.0927,-1.0908,-1.0908,-1.0877,-1.0873,-1.0883,-1.0862,-1.0889,-1.0858,-1.0858,-1.0859,-1.0863,-1.0945,-1.0965,-1.1017,-1.0915,-1.0916,-1.0917,0,-1.1049,-1.1041,-1.1065,-1.1039,-1.1039,-1.1048,-1.1039,-1.104,-1.1023,-1.1009,-1.1003,-1.0975,-1.0984,-1.095,-1.0961,-1.094,-1.0939,-1.0929,-1.093,-1.0928,-1.0891,-1.0944,-1.1034,-1.1041,-1.0928,-1.0927,-1.0926,0,-1.112,-1.1116,-1.1129,-1.1123,-1.1094,-1.1101,-1.1089,-1.1071,-1.1069,-1.106,-1.1058,-1.1051,-1.1047,-1.1043,-1.1013,-1.0992,-1.1028,-1.0992,-1.1016,-1.1017,-1.1025,-1.1025,-1.1115,-1.1026,-1.1026,-1.1026,-1.1026,0,-1.1189,-1.1205,-1.1161,-1.1169,-1.1185,-1.115,-1.1168,-1.1151,-1.1136,-1.114,-1.1104,-1.1109,-1.107,-1.1071,-1.1048,-1.106,-1.1059,-1.1048,-1.1041,-1.1051,-1.1052,-1.1048,-1.1044,-1.1028,-1.1027,-1.1027,-1.1027,0,-1.1271,-1.1242,-1.1254,-1.1225,-1.1218,-1.1231,-1.1206,-1.1213,-1.1192,-1.1198,-1.1197,-1.1165,-1.1164,-1.1134,-1.1127,-1.1112,-1.1133,-1.112,-1.1138,-1.1134,-1.116,-1.1157,-1.1249,-1.1259,-1.1166,-1.1166,-1.1167,0,-1.1316,-1.1327,-1.1299,-1.1299,-1.1289,-1.1289,-1.1286,-1.1252,-1.125,-1.1232,-1.124,-1.1236,-1.123,-1.123,-1.1206,-1.12,-1.1186,-1.1219,-1.1185,-1.1194,-1.1186,-1.1185,-1.1185,-1.1226,-1.1227,-1.1228,-1.1229,0,-1.1399,-1.1384,-1.138,-1.1372,-1.1369,-1.136,-1.135,-1.1352,-1.1314,-1.1314,-1.1311,-1.1307,-1.1299,-1.1295,-1.1284,-1.1272,-1.1244,-1.124,-1.1245,-1.1254,-1.1264,-1.1258,-1.1157,-1.1238,-1.1237,-1.1236,-1.1236,-1.1236,-1.1463,-1.1471,-1.1452,-1.1449,-1.1437,-1.1428,-1.1432,-1.1412,-1.1409,-1.1399,-1.1379,-1.138,-1.1363,-1.1346,-1.1336,-1.1336,-1.1319,-1.1327,-1.1329,-1.1331,-1.1336,-1.1264,-1.1334,-1.1334,-1.1334,-1.1333,-1.1333,0,-1.1543,-1.1529,-1.1526,-1.1512,-1.151,-1.1483,-1.147,-1.147,-1.1471,-1.1457,-1.1452,-1.1449,-1.1445,-1.142,-1.1413,-1.1418,-1.1405,-1.1417,-1.1416,-1.1413,-1.1351,-1.1347,-1.1428,-1.1428,-1.1428,-1.1428,-1.1428,-1.1428,-1.1584,-1.1595,-1.1578,-1.1583,-1.1568,-1.1568,-1.1563,-1.1554,-1.1542,-1.1541,-1.1536,-1.152,-1.1502,-1.1493,-1.1488,-1.1481,-1.1479,-1.1496,-1.1484,-1.1427,-1.1418,-1.1409,-1.1405,-1.1496,-1.1496,-1.1546,-1.1546,-1.1547]}]]